User: anonymous
Location: Unspecified
(0.0000°N, 0.0000°E)
Time: 08:32:55
(UTC+02:00)
Language:

Orbus 21S - Orbit

View from above orbital plane
View from above orbital plane
View from above satellite
View from above satellite

Ground track
Ground track

The orbit data is extracted from the following two-line orbital elements,

1 20669U 90056C   14212.85376193  .00001221  00000-0  12300-2 0  3364
2 20669 024.1186 164.1896 7123919 350.3905 005.0939 02.44300697201485
Epoch (UTC): 31 July 2014 20:29:25
Eccentricity: 0.7123919
inclination: 24.1186°
perigee height: 319 km
apogee height: 33498 km
right ascension of ascending node: 164.1896°
argument of perigee: 350.3905°
revolutions per day: 2.44300697
mean anomaly at epoch: 5.0939°
orbit number at epoch: 20148

The dashed part of the orbit path shows where the satellite is in the earth's shadow,  

DLR